STARLINK-31319, 59457

Orbit data source: Space-Track

STARLINK-31319, 59457 is a payload satellite owned by SpaceX/Seattle (US) in LEO that was launched on Wed, 10 Apr 2024 UTC via an FALCON 9 launch vehicle from the Air Force Eastern Test Range (AFETR). Payload-class satellites include a variety of spacecraft equipped with specific instruments for various scientific and technological missions. These include communications satellites like Starlink; space stations such as the ISS; scientific satellites like the Hubble; Earth observation satellites from companies like Planet Labs, Umbra, and HawkEye 360; GPS; miniature CubeSats for education and research; and military/defense satellites.

Loading next visibility...
Identifier
59457, 2024-068C
Orbit
LEO
Country
Flag of USUS
Related business
Manufacturer
SpaceX/Seattle
Mission
Operational Commercial Communications
Bus & Motor
STARLINK V2M, Unknown motor
Mass
730 kg wet, ~700 kg dry
Launch date (UTC)
2024-04-10 (2 years ago)
Launch vehicle
FALCON 9
Launch site
Air Force Eastern Test Range (AFETR)
Object type
Payload
Rocket body
Debris
Shape & HBR
Box + 2 Pan, 17.7 m
Radar Cross Section
33.884 m², Large (>1 m²)

Expand to show TLE details & history
Last TLE update: 2 days ago

TLE from 2 days ago
0 STARLINK-31319
1 59457U 24068C   26171.08302204  .00001394  00000-0  60183-4 0  9995
2 59457  43.0010 172.6927 0001468 270.8500  89.2184 15.27582480124220
Epoch: 2026-06-20T01:59Z
TLE epoch observation values (Epoch: 2026-06-20T01:59:33.104Z)
Latitude
0.00003°
Longitude
-125.49794°
Altitude
482.804 km
Speed
7.626 km/s
True Right ascension
11h 30m 46s
True Declination
0° 00' 00"
Sunlit
Object was in daylight at epoch
Visualization orbit readout
Latitude
Unknown
Longitude
Unknown
Altitude
Unknown
Speed
Unknown
Apparent Right ascension
Unknown
Apparent Declination
Unknown
Sunlit
N/A
Visualization observer readout
Local Sidereal Time
00:34:17
Azimuth
Unknown
Elevation
Unknown
Doppler factor
Unknown
Orbital elements
Apogee altitude
485.994 km
Perigee altitude
483.979 km
Semi-major axis
6,863.124 km
Eccentricity
0.00015
Inclination
43.001°
RAAN
172.6927°
Arg. of periapsis
270.85°
True anomaly
89.23522°
Mean anomaly
89.2184°
Eccentric anomaly
89.22681°
Mean motion
3.81734 °/min
Orbital period
94.31 mins
BSTAR
0.000060183
Loading maneuver chart data...
Computing Atmospheric mass density...
Loading historical data...
Loading historical data...
Loading historical data...
Loading historical data...
Loading historical data...
Loading historical data...
Loading historical data...

Documentation

Showing up to 5 results
|